Location: *
(50.8160°S, 176.0219°W)
Time: 03:06:01
(UTC+00:00)

Cosmos 2237 Rocket - Pass Details

Date: 19 May 2026
Orbit: 833 x 849 km, 71.0° (Epoch: 8 June)

Event Time Altitude Azimuth Distance (km) Brightness Sun altitude
Exits shadow 15:34:11 15° 171° (S) 2,167 4.5 -35.1°
Drops below altitude 10° 15:35:16 10° 164° (SSE) 2,486 4.9 -34.9°
Sets 15:38:07 0° 152° (SSE) 3,427 5.8 -34.5°
